星链-31560 (STARLINK-31560 )

导读

STARLINK-31560是美国SpaceX星链星座中的一颗卫星,于北京时间2024年3月31日8点发射入轨。星链项目旨在构建全球卫星互联网,为全球尤其是偏远地区提供高速网络服务,该卫星将加入庞大的星链星座组网,进一步拓展星链的全球覆盖能力与服务容量。

基本信息
目录编号:
59361
目录名称:
STARLINK-31560
国际标识:
2024-060P
轨道中心:
EARTH
卫星名称:
星链-31560
卫星全名:
星链-31560 (STARLINK-31560 )
卫星状态:
在轨 (已飞行809 天)
发射日期:
2024-03-31 UTC
国别 :
美国 (US)
星等 :
--
轨道信息
数据来源 国际轨道数据
星历时间: 2026-06-17T07:07:14+0800
1天前
查看轨道信息
半长轴: 6861.192km
偏心率: 0.0001678
轨道倾角: 43.005°
近地点辐角 272.200°
升交点赤经 59.364°
平近点角 87.866°
近地点: 481.903km
远地点: 484.207km
周期: 94.267分钟
每日圈数: 15.275783
详细信息
固有亮度:
5
最大亮度:
0.3
卫星平台:
Starlink v2.0 mini
覆盖范围:
全球
运营商:
太空探索技术公司
运营商所在国:
美国
制造商(研发单位):
太空探索技术公司
制造商所在国:
美国
使用方式:
暂无
卫星简介
星链(Starlink)计划是由太空探索技术公司(SpaceX)提出的一个巨型低轨卫星互联网星座项目,计划在2019年至2024年间在太空搭建由约1.2万颗卫星组成的“星链”网络,其中1584颗将部署在地球上空550千米处的近地轨道,并从2020年开始工作。该卫星仍在工作。
2D轨道图
3D轨道图
轨道高度分析图
轨道倾角分析图
轨道综合分析图
查看轨道综合分析图